TimeCDT,TemperatureF,Dew PointF,Humidity,Sea Level PressureIn,VisibilityMPH,Wind Direction,Wind SpeedMPH,Gust SpeedMPH,PrecipitationIn,Events,Conditions,WindDirDegrees,DateUTC
12:15 AM,40.6,32.0,71,29.91,10.0,Calm,Calm,-,N/A,,Clear,0,2013-10-17 05:15:00
12:35 AM,40.3,32.4,73,29.91,10.0,Calm,Calm,-,N/A,,Clear,0,2013-10-17 05:35:00
12:55 AM,41.4,31.3,67,29.90,10.0,Calm,Calm,-,N/A,,Clear,0,2013-10-17 05:55:00
1:15 AM,39.7,31.8,73,29.90,10.0,Calm,Calm,-,N/A,,Clear,0,2013-10-17 06:15:00
1:35 AM,38.1,32.9,81,29.90,10.0,Calm,Calm,-,N/A,,Clear,0,2013-10-17 06:35:00
1:55 AM,38.5,32.2,78,29.90,10.0,Calm,Calm,-,N/A,,Clear,0,2013-10-17 06:55:00
2:15 AM,38.5,32.7,80,29.90,10.0,WSW,3.5,-,N/A,,Clear,240,2013-10-17 07:15:00
2:35 AM,37.9,32.2,80,29.90,10.0,SW,3.5,-,N/A,,Clear,230,2013-10-17 07:35:00
2:55 AM,37.6,31.8,80,29.90,10.0,WSW,3.5,-,N/A,,Clear,240,2013-10-17 07:55:00
3:15 AM,36.5,31.8,83,29.89,10.0,WSW,3.5,-,N/A,,Clear,240,2013-10-17 08:15:00
3:35 AM,36.9,31.1,80,29.89,10.0,Calm,Calm,-,N/A,,Clear,0,2013-10-17 08:35:00
3:55 AM,36.5,30.2,78,29.88,10.0,West,3.5,-,N/A,,Clear,280,2013-10-17 08:55:00
4:15 AM,36.1,29.8,78,29.88,10.0,West,5.8,-,N/A,,Clear,270,2013-10-17 09:15:00
4:35 AM,35.8,30.2,80,29.88,10.0,West,4.6,-,N/A,,Clear,280,2013-10-17 09:35:00
4:55 AM,36.0,30.2,80,29.88,10.0,West,5.8,-,N/A,,Clear,280,2013-10-17 09:55:00
5:15 AM,35.6,30.4,81,29.88,10.0,West,8.1,-,N/A,,Clear,270,2013-10-17 10:15:00
5:35 AM,36.1,30.6,80,29.88,10.0,West,6.9,-,N/A,,Clear,270,2013-10-17 10:35:00
5:55 AM,37.0,30.7,78,29.88,10.0,West,6.9,-,N/A,,Clear,280,2013-10-17 10:55:00
6:15 AM,36.9,30.7,79,29.89,10.0,West,8.1,-,N/A,,Clear,280,2013-10-17 11:15:00
6:35 AM,36.9,30.9,79,29.90,10.0,West,9.2,-,N/A,,Clear,280,2013-10-17 11:35:00
6:55 AM,37.9,31.6,78,29.90,10.0,WNW,11.5,16.1,N/A,,Clear,290,2013-10-17 11:55:00
7:15 AM,38.3,32.0,78,29.90,10.0,WNW,11.5,-,N/A,,Clear,290,2013-10-17 12:15:00
7:35 AM,38.7,32.0,77,29.90,10.0,WNW,10.4,-,N/A,,Clear,290,2013-10-17 12:35:00
7:55 AM,39.4,32.5,76,29.90,10.0,WNW,16.1,-,N/A,,Clear,290,2013-10-17 12:55:00
8:15 AM,40.1,33.4,77,29.91,10.0,WNW,15.0,19.6,N/A,,Clear,300,2013-10-17 13:15:00
8:35 AM,41.5,34.7,77,29.92,10.0,WNW,17.3,23.0,N/A,,Clear,300,2013-10-17 13:35:00
8:55 AM,42.8,35.6,76,29.93,10.0,WNW,17.3,26.5,N/A,,Clear,300,2013-10-17 13:55:00
9:15 AM,42.8,36.0,77,29.93,10.0,WNW,24.2,31.1,N/A,,Clear,300,2013-10-17 14:15:00
9:35 AM,42.8,36.7,79,29.95,10.0,WNW,21.9,28.8,N/A,,Scattered Clouds,300,2013-10-17 14:35:00
9:55 AM,44.1,37.6,78,29.96,10.0,WNW,19.6,31.1,N/A,,Overcast,300,2013-10-17 14:55:00
10:15 AM,44.4,37.4,76,29.97,10.0,NW,25.3,33.4,N/A,,Overcast,310,2013-10-17 15:15:00
10:35 AM,44.6,37.4,76,29.98,10.0,NW,23.0,34.5,N/A,,Overcast,310,2013-10-17 15:35:00
10:55 AM,45.0,37.8,76,29.98,10.0,NW,21.9,31.1,N/A,,Overcast,310,2013-10-17 15:55:00
11:15 AM,45.3,37.8,75,29.99,10.0,NW,24.2,29.9,N/A,,Overcast,310,2013-10-17 16:15:00
11:35 AM,45.5,37.9,75,29.99,10.0,NW,24.2,32.2,N/A,,Overcast,310,2013-10-17 16:35:00
11:55 AM,44.8,37.6,76,30.00,10.0,NW,27.6,32.2,N/A,,Overcast,310,2013-10-17 16:55:00
12:15 PM,44.1,36.7,75,30.00,10.0,NW,28.8,34.5,N/A,,Overcast,310,2013-10-17 17:15:00
12:35 PM,43.9,36.5,75,30.01,10.0,NW,20.7,33.4,N/A,,Overcast,320,2013-10-17 17:35:00
12:55 PM,45.0,35.4,69,30.02,10.0,NW,24.2,33.4,N/A,,Overcast,310,2013-10-17 17:55:00
1:15 PM,45.7,35.2,67,30.02,10.0,NW,26.5,32.2,N/A,,Overcast,310,2013-10-17 18:15:00
1:35 PM,44.1,35.4,72,30.02,10.0,NW,23.0,29.9,N/A,,Overcast,320,2013-10-17 18:35:00
1:55 PM,44.6,35.2,70,30.02,10.0,NW,25.3,34.5,N/A,,Overcast,320,2013-10-17 18:55:00
2:15 PM,44.8,35.4,70,30.02,10.0,NW,21.9,29.9,N/A,,Overcast,310,2013-10-17 19:15:00
2:35 PM,44.6,34.9,69,30.02,10.0,NW,21.9,31.1,N/A,,Overcast,320,2013-10-17 19:35:00
2:55 PM,44.6,34.7,68,30.02,10.0,NNW,24.2,33.4,N/A,,Overcast,330,2013-10-17 19:55:00
3:15 PM,43.9,34.9,71,30.02,10.0,NW,16.1,27.6,N/A,,Overcast,320,2013-10-17 20:15:00
3:35 PM,44.2,34.2,68,30.02,10.0,NW,20.7,28.8,N/A,,Overcast,320,2013-10-17 20:35:00
3:55 PM,44.6,33.8,66,30.02,10.0,NW,24.2,32.2,N/A,,Overcast,320,2013-10-17 20:55:00
4:15 PM,45.5,32.9,61,30.02,10.0,NW,20.7,26.5,N/A,,Overcast,310,2013-10-17 21:15:00
4:35 PM,44.6,33.1,64,30.02,10.0,NNW,16.1,28.8,N/A,,Overcast,330,2013-10-17 21:35:00
4:55 PM,44.6,32.5,63,30.02,10.0,NW,19.6,26.5,N/A,,Overcast,320,2013-10-17 21:55:00
5:15 PM,43.9,31.5,62,30.02,10.0,NW,18.4,26.5,N/A,,Overcast,310,2013-10-17 22:15:00
5:35 PM,43.2,31.5,63,30.03,10.0,NW,19.6,27.6,N/A,,Overcast,310,2013-10-17 22:35:00
5:55 PM,42.8,32.0,66,30.04,10.0,NW,11.5,21.9,N/A,,Overcast,320,2013-10-17 22:55:00
6:15 PM,42.8,31.5,64,30.04,10.0,NW,18.4,23.0,N/A,,Overcast,320,2013-10-17 23:15:00
6:35 PM,42.4,32.0,67,30.05,10.0,NW,13.8,19.6,N/A,,Overcast,310,2013-10-17 23:35:00
6:55 PM,42.3,31.8,67,30.06,10.0,NW,13.8,19.6,N/A,,Overcast,320,2013-10-17 23:55:00
7:15 PM,41.9,30.6,64,30.06,10.0,NW,17.3,26.5,N/A,,Overcast,320,2013-10-18 00:15:00
7:35 PM,41.9,29.5,61,30.07,10.0,NW,15.0,19.6,N/A,,Overcast,320,2013-10-18 00:35:00
7:55 PM,41.5,29.8,63,30.07,10.0,NW,13.8,19.6,N/A,,Overcast,320,2013-10-18 00:55:00
8:15 PM,41.2,29.1,62,30.08,10.0,NW,12.7,-,N/A,,Overcast,320,2013-10-18 01:15:00
8:35 PM,41.0,29.1,63,30.08,10.0,NW,10.4,17.3,N/A,,Overcast,320,2013-10-18 01:35:00
8:55 PM,40.3,29.3,65,30.09,10.0,NW,9.2,-,N/A,,Overcast,310,2013-10-18 01:55:00
9:15 PM,40.1,29.7,66,30.09,10.0,NW,6.9,-,N/A,,Overcast,310,2013-10-18 02:15:00
9:35 PM,39.7,29.8,68,30.09,10.0,WNW,6.9,-,N/A,,Overcast,300,2013-10-18 02:35:00
9:55 PM,37.8,29.3,72,30.09,10.0,WNW,4.6,-,N/A,,Mostly Cloudy,300,2013-10-18 02:55:00
10:15 PM,35.8,28.9,76,30.09,10.0,WNW,3.5,-,N/A,,Clear,290,2013-10-18 03:15:00
10:35 PM,35.1,28.9,78,30.09,10.0,WNW,5.8,-,N/A,,Mostly Cloudy,290,2013-10-18 03:35:00
10:55 PM,35.6,29.5,78,30.09,10.0,West,4.6,-,N/A,,Overcast,280,2013-10-18 03:55:00
11:15 PM,35.2,29.7,80,30.09,10.0,West,4.6,-,N/A,,Mostly Cloudy,280,2013-10-18 04:15:00
11:35 PM,36.5,29.7,76,30.09,10.0,WNW,6.9,-,N/A,,Overcast,290,2013-10-18 04:35:00
11:55 PM,36.5,30.0,77,30.09,10.0,WNW,6.9,-,N/A,,Overcast,290,2013-10-18 04:55:00